Location: Oberwangen
(47.4286°N, 8.9679°E)
Time: 01:19:56
(UTC+00:00)

ATLAS CENTAUR R/B - Visible Passes

Search period start: 23 October 2021 00:00
Search period end: 02 November 2021 00:00
Orbit: 459 x 683 km, 64.6° (Epoch: 22 October)

Date Brightness Start Highest point End Pass type
(mag) Time Alt. Az. Time Alt. Az. Time Alt. Az.
23 Oct 4.5 02:16:04 12° NE 02:16:04 12° NE 02:16:30 10° NE visible
23 Oct 3.1 03:52:13 21° NNW 03:52:13 21° NNW 03:55:01 10° NNE visible
24 Oct 4.5 02:18:04 12° NE 02:18:04 12° NE 02:18:22 10° NE visible
24 Oct 3.4 03:54:12 17° NNW 03:54:12 17° NNW 03:56:40 10° NNE visible
25 Oct 4.6 02:20:02 11° NNE 02:20:02 11° NNE 02:20:11 10° NNE visible
25 Oct 3.6 03:56:10 15° NNW 03:56:10 15° NNW 03:58:18 10° N visible
26 Oct 4.6 02:21:58 10° NNE 02:21:58 10° NNE 02:21:59 10° NNE visible
26 Oct 3.8 03:58:05 13° NNW 03:58:05 13° NNW 03:59:52 10° N visible
27 Oct 3.9 03:59:59 11° NNW 04:00:06 11° NNW 04:01:19 10° N visible
